• In Kazakhstan
  • List of Countries
  • For 7 days
  • Water Temperature
  • Weather Map
  • News
  • Weather Widgets
  • user-avatar
    Login

    Hourly Weather Gabrovo

    Today, 27 January, Monday

    Time Temperature Precipitation Wind Pressure Humidity
    00:00 +5°C° 0 mm 1 mps 703 mmHg 72%
    01:00 +5°C° 0 mm 1 mps 703 mmHg 74%
    02:00 +4°C° 0 mm 1 mps 703 mmHg 77%
    03:00 +4°C° 0 mm 1 mps 702 mmHg 79%
    04:00 +4°C° 0 mm 1 mps 702 mmHg 81%
    05:00 +4°C° 0 mm 1 mps 701 mmHg 82%
    06:00 +4°C° 0 mm 1 mps 701 mmHg 84%
    07:00 +3°C° 0 mm 1 mps 701 mmHg 85%
    08:00 +3°C° 0 mm 1 mps 701 mmHg 87%
    09:00 +5°C° 0 mm 1 mps 701 mmHg 82%
    10:00 +6°C° 0 mm 1 mps 701 mmHg 78%
    11:00 +7°C° 0 mm 1 mps 701 mmHg 73%
    12:00 +8°C° 0 mm 1 mps 701 mmHg 71%
    13:00 +9°C° 0 mm 1 mps 700 mmHg 68%
    14:00 +10°C° 0 mm 1 mps 700 mmHg 66%
    15:00 +9°C° 0 mm 1 mps 700 mmHg 70%
    16:00 +8°C° 0 mm 1 mps 699 mmHg 74%
    17:00 +8°C° 0 mm 1 mps 699 mmHg 78%
    18:00 +7°C° 0 mm 1 mps 699 mmHg 80%
    19:00 +6°C° 0 mm 1 mps 699 mmHg 81%
    20:00 +5°C° 0 mm 2 mps 698 mmHg 83%
    21:00 +5°C° 0.1 mm 2 mps 699 mmHg 84%
    22:00 +5°C° 0.1 mm 2 mps 699 mmHg 85%
    23:00 +5°C° 0.1 mm 2 mps 699 mmHg 86%

    Tomorrow, 28 January, Tuesday

    Time Temperature Precipitation Wind Pressure Humidity
    00:00 +4°C° 0.1 mm 2 mps 698 mmHg 86%
    01:00 +4°C° 0.1 mm 2 mps 698 mmHg 86%
    02:00 +4°C° 0.1 mm 2 mps 698 mmHg 86%
    03:00 +4°C° 0 mm 2 mps 698 mmHg 86%
    04:00 +3°C° 0 mm 2 mps 698 mmHg 86%
    05:00 +3°C° 0 mm 2 mps 698 mmHg 86%
    06:00 +3°C° 0 mm 2 mps 698 mmHg 86%
    07:00 +3°C° 0 mm 2 mps 698 mmHg 87%
    08:00 +2°C° 0 mm 2 mps 698 mmHg 88%
    09:00 +4°C° 0 mm 2 mps 698 mmHg 80%
    10:00 +5°C° 0 mm 2 mps 699 mmHg 72%
    11:00 +7°C° 0 mm 2 mps 699 mmHg 64%
    12:00 +8°C° 0 mm 2 mps 698 mmHg 59%
    13:00 +8°C° 0 mm 2 mps 698 mmHg 54%
    14:00 +9°C° 0 mm 2 mps 698 mmHg 49%
    15:00 +10°C° 0 mm 1 mps 697 mmHg 53%
    16:00 +9°C° 0 mm 1 mps 697 mmHg 56%
    17:00 +8°C° 0 mm 1 mps 697 mmHg 60%
    18:00 +7°C° 0 mm 1 mps 697 mmHg 63%
    19:00 +5°C° 0 mm 0 mps 697 mmHg 66%
    20:00 +4°C° 0 mm 0 mps 697 mmHg 70%
    21:00 +4°C° 0 mm 0 mps 697 mmHg 71%
    22:00 +5°C° 0 mm 1 mps 696 mmHg 72%
    23:00 +4°C° 0 mm 1 mps 696 mmHg 72%

    Day after tomorrow, 29 January, Wednesday

    Time Temperature Precipitation Wind Pressure Humidity
    00:00 +4°C° 0 mm 1 mps 696 mmHg 72%
    01:00 +4°C° 0 mm 1 mps 696 mmHg 72%
    02:00 +3°C° 0 mm 0 mps 695 mmHg 71%
    03:00 +4°C° 0 mm 1 mps 695 mmHg 71%
    04:00 +4°C° 0 mm 1 mps 694 mmHg 71%
    05:00 +4°C° 0 mm 1 mps 694 mmHg 72%
    06:00 +4°C° 0 mm 1 mps 694 mmHg 73%
    07:00 +4°C° 0 mm 1 mps 694 mmHg 73%
    08:00 +4°C° 0 mm 1 mps 694 mmHg 74%
    09:00 +4°C° 0.2 mm 2 mps 695 mmHg 75%
    10:00 +4°C° 0.2 mm 2 mps 696 mmHg 76%
    11:00 +5°C° 0.2 mm 2 mps 696 mmHg 77%
    12:00 +6°C° 0 mm 2 mps 696 mmHg 70%
    13:00 +7°C° 0 mm 2 mps 696 mmHg 63%
    14:00 +8°C° 0 mm 2 mps 696 mmHg 55%
    15:00 +9°C° 0 mm 1 mps 696 mmHg 61%
    16:00 +8°C° 0 mm 1 mps 696 mmHg 66%
    17:00 +7°C° 0 mm 1 mps 696 mmHg 72%
    18:00 +6°C° 0.1 mm 1 mps 696 mmHg 75%
    19:00 +6°C° 0.1 mm 1 mps 696 mmHg 79%
    20:00 +5°C° 0.1 mm 1 mps 696 mmHg 83%
    21:00 +5°C° 0.1 mm 1 mps 696 mmHg 85%
    22:00 +5°C° 0.1 mm 1 mps 696 mmHg 87%
    23:00 +5°C° 0.1 mm 1 mps 696 mmHg 89%

    30 January, Thursday

    Time Temperature Precipitation Wind Pressure Humidity
    00:00 +5°C° 0.4 mm 1 mps 696 mmHg 90%
    01:00 +5°C° 0.4 mm 1 mps 696 mmHg 90%
    02:00 +3°C° 0.4 mm 2 mps 696 mmHg 91%
    03:00 +3°C° 0.2 mm 2 mps 696 mmHg 89%
    04:00 +3°C° 0.2 mm 2 mps 696 mmHg 87%
    05:00 +2°C° 0.2 mm 3 mps 696 mmHg 86%
    06:00 +1°C° 0 mm 3 mps 696 mmHg 82%
    07:00 +1°C° 0 mm 3 mps 697 mmHg 79%
    08:00 0°C° 0 mm 3 mps 697 mmHg 76%
    09:00 +1°C° 0 mm 3 mps 697 mmHg 67%
    10:00 +1°C° 0 mm 4 mps 698 mmHg 58%
    11:00 +1°C° 0 mm 4 mps 698 mmHg 49%
    12:00 +1°C° 0 mm 5 mps 698 mmHg 48%
    13:00 +1°C° 0 mm 5 mps 698 mmHg 48%
    14:00 +1°C° 0 mm 5 mps 698 mmHg 48%
    15:00 +1°C° 0 mm 4 mps 698 mmHg 51%
    16:00 0°C° 0 mm 4 mps 698 mmHg 55%
    17:00 +1°C° 0 mm 3 mps 699 mmHg 58%
    18:00 0°C° 0 mm 3 mps 699 mmHg 63%
    19:00 -1°C° 0 mm 3 mps 699 mmHg 69%
    20:00 -2°C° 0 mm 3 mps 699 mmHg 74%
    21:00 -2°C° 0 mm 3 mps 700 mmHg 74%
    22:00 -2°C° 0 mm 3 mps 700 mmHg 75%
    23:00 -2°C° 0 mm 3 mps 701 mmHg 75%

    31 January, Friday

    Time Temperature Precipitation Wind Pressure Humidity
    00:00 -4°C° 0 mm 3 mps 701 mmHg 74%
    01:00 -4°C° 0 mm 3 mps 701 mmHg 73%
    02:00 -3°C° 0 mm 2 mps 701 mmHg 72%
    03:00 -3°C° 0 mm 2 mps 701 mmHg 70%
    04:00 -3°C° 0 mm 2 mps 701 mmHg 68%
    05:00 -1°C° 0 mm 1 mps 701 mmHg 66%
    06:00 -1°C° 0 mm 1 mps 701 mmHg 64%
    07:00 -1°C° 0 mm 1 mps 701 mmHg 62%
    08:00 -1°C° 0 mm 1 mps 701 mmHg 60%
    09:00 +1°C° 0 mm 1 mps 702 mmHg 53%
    10:00 +2°C° 0 mm 1 mps 702 mmHg 46%
    11:00 +4°C° 0 mm 1 mps 702 mmHg 39%
    12:00 +5°C° 0 mm 1 mps 701 mmHg 38%
    13:00 +5°C° 0 mm 1 mps 701 mmHg 37%
    14:00 +6°C° 0 mm 1 mps 700 mmHg 36%
    15:00 +5°C° 0 mm 1 mps 700 mmHg 41%
    16:00 +4°C° 0 mm 1 mps 699 mmHg 45%
    17:00 +4°C° 0 mm 1 mps 699 mmHg 49%
    18:00 +3°C° 0 mm 1 mps 699 mmHg 49%
    19:00 +3°C° 0 mm 1 mps 698 mmHg 50%
    20:00 +2°C° 0 mm 1 mps 698 mmHg 50%
    21:00 +2°C° 0 mm 1 mps 698 mmHg 50%
    22:00 +2°C° 0 mm 1 mps 698 mmHg 50%
    23:00 +2°C° 0 mm 1 mps 698 mmHg 50%

    1 February, Saturday

    Time Temperature Precipitation Wind Pressure Humidity
    00:00 +2°C° 0.1 mm 1 mps 698 mmHg 57%
    01:00 +1°C° 0.1 mm 2 mps 698 mmHg 63%
    02:00 +1°C° 0.1 mm 2 mps 698 mmHg 69%
    03:00 +2°C° 0 mm 2 mps 698 mmHg 74%
    04:00 +1°C° 0 mm 3 mps 698 mmHg 79%
    05:00 +1°C° 0 mm 3 mps 698 mmHg 84%
    06:00 +1°C° 0 mm 3 mps 699 mmHg 84%
    07:00 +1°C° 0 mm 3 mps 699 mmHg 85%
    08:00 +2°C° 0 mm 3 mps 699 mmHg 85%
    09:00 +4°C° 0 mm 2 mps 700 mmHg 81%
    10:00 +5°C° 0 mm 2 mps 701 mmHg 76%
    11:00 +6°C° 0 mm 2 mps 702 mmHg 71%
    12:00 +6°C° 0 mm 2 mps 702 mmHg 69%
    13:00 +7°C° 0 mm 2 mps 702 mmHg 67%
    14:00 +7°C° 0 mm 2 mps 702 mmHg 65%
    15:00 +7°C° 0 mm 2 mps 702 mmHg 67%
    16:00 +6°C° 0 mm 2 mps 702 mmHg 70%
    17:00 +7°C° 0 mm 1 mps 702 mmHg 72%
    18:00 +6°C° 0 mm 1 mps 702 mmHg 75%
    19:00 +5°C° 0 mm 1 mps 702 mmHg 78%
    20:00 +4°C° 0 mm 1 mps 702 mmHg 80%
    21:00 +4°C° 0 mm 1 mps 702 mmHg 81%
    22:00 +3°C° 0 mm 0 mps 703 mmHg 82%
    23:00 +3°C° 0 mm 0 mps 703 mmHg 83%
    Show more